Radiation Dose at Monitoring Post of Fukushima Daini Nuclear Power Station
Date,Time,MP-1(microSv/h),MP-2(microSv/h),MP-3(microSv/h),MP-4(microSv/h),MP-5(microSv/h),MP-6(microSv/h),MP-7(microSv/h),Wind Direction,Wind Velocity(m/s),Rain
2018/04/17,00:00,0.321,0.200,0.326,0.310,0.300,0.162,0.098,north-northeast,0.7,No
2018/04/17,00:10,0.320,0.200,0.325,0.310,0.301,0.162,0.098,-,CALM,No
2018/04/17,00:20,0.320,0.200,0.327,0.309,0.299,0.162,0.097,-,CALM,No
2018/04/17,00:30,0.320,0.200,0.326,0.311,0.301,0.162,0.097,-,CALM,No
2018/04/17,00:40,0.320,0.200,0.327,0.310,0.301,0.163,0.098,-,CALM,No
2018/04/17,00:50,0.319,0.200,0.325,0.310,0.300,0.162,0.098,-,CALM,No
2018/04/17,01:00,0.321,0.200,0.326,0.311,0.300,0.162,0.098,-,CALM,No
2018/04/17,01:10,0.320,0.201,0.326,0.311,0.299,0.163,0.098,-,CALM,No
2018/04/17,01:20,0.321,0.200,0.326,0.309,0.300,0.162,0.098,east-northeast,0.9,No
2018/04/17,01:30,0.320,0.201,0.326,0.310,0.302,0.163,0.098,northeast,0.7,No
2018/04/17,01:40,0.320,0.200,0.326,0.310,0.300,0.164,0.099,east-northeast,0.9,No
2018/04/17,01:50,0.322,0.200,0.326,0.310,0.301,0.162,0.097,north-northeast,0.8,No
2018/04/17,02:00,0.320,0.201,0.325,0.309,0.302,0.162,0.098,northeast,1.6,No
2018/04/17,02:10,0.319,0.201,0.324,0.310,0.300,0.163,0.098,northeast,1.6,No
2018/04/17,02:20,0.322,0.200,0.325,0.310,0.300,0.164,0.098,northeast,2.3,No
2018/04/17,02:30,0.321,0.199,0.327,0.310,0.301,0.162,0.098,north-northeast,2.6,No
2018/04/17,02:40,0.320,0.200,0.325,0.309,0.301,0.164,0.098,north-northeast,2.3,No
2018/04/17,02:50,0.320,0.200,0.326,0.311,0.301,0.164,0.099,north,2.1,No
2018/04/17,03:00,0.321,0.202,0.327,0.309,0.300,0.162,0.098,north,1.8,No
2018/04/17,03:10,0.321,0.200,0.326,0.310,0.300,0.163,0.098,north,1.9,No
2018/04/17,03:20,0.321,0.200,0.327,0.311,0.302,0.163,0.098,north,2.3,No
2018/04/17,03:30,0.320,0.201,0.327,0.311,0.299,0.162,0.097,north,3.5,No
2018/04/17,03:40,0.319,0.201,0.326,0.311,0.302,0.163,0.098,north,3.4,No
2018/04/17,03:50,0.322,0.200,0.327,0.310,0.302,0.163,0.098,north,2.4,No
2018/04/17,04:00,0.322,0.201,0.327,0.311,0.300,0.162,0.099,north,2.3,No
2018/04/17,04:10,0.320,0.201,0.326,0.309,0.302,0.163,0.098,north-northeast,3.3,No
2018/04/17,04:20,0.322,0.201,0.327,0.312,0.301,0.163,0.099,north-northeast,3.2,No
2018/04/17,04:30,0.322,0.201,0.326,0.312,0.300,0.163,0.098,north-northeast,3.1,No
2018/04/17,04:40,0.320,0.201,0.326,0.311,0.302,0.163,0.098,north,3.2,No
2018/04/17,04:50,0.323,0.202,0.327,0.311,0.301,0.163,0.099,north,3.8,No
2018/04/17,05:00,0.320,0.200,0.327,0.311,0.301,0.164,0.097,north,4.0,No
2018/04/17,05:10,0.322,0.201,0.325,0.309,0.303,0.162,0.099,north-northeast,5.1,No
2018/04/17,05:20,0.321,0.201,0.325,0.310,0.300,0.163,0.098,north,4.5,No
2018/04/17,05:30,0.320,0.201,0.326,0.311,0.301,0.163,0.098,north,4.1,No
2018/04/17,05:40,0.321,0.201,0.327,0.310,0.302,0.162,0.098,north,4.1,No
2018/04/17,05:50,0.323,0.201,0.326,0.310,0.300,0.164,0.098,north,4.5,No
2018/04/17,06:00,0.319,0.200,0.325,0.311,0.302,0.163,0.098,north,5.0,No
2018/04/17,06:10,0.320,0.202,0.326,0.309,0.301,0.162,0.098,north,4.1,No
2018/04/17,06:20,0.321,0.202,0.327,0.310,0.301,0.163,0.099,north,3.7,No
2018/04/17,06:30,0.322,0.201,0.325,0.312,0.301,0.163,0.098,north,3.6,No
2018/04/17,06:40,0.321,0.201,0.324,0.309,0.301,0.163,0.098,north,2.4,No
2018/04/17,06:50,0.322,0.201,0.328,0.310,0.301,0.162,0.097,northwest,2.4,No
2018/04/17,07:00,0.320,0.200,0.325,0.310,0.302,0.163,0.098,north-northwest,1.8,No
2018/04/17,07:10,0.322,0.200,0.325,0.308,0.300,0.164,0.097,north,1.9,No
2018/04/17,07:20,0.320,0.200,0.325,0.310,0.302,0.163,0.097,north-northwest,1.9,No
2018/04/17,07:30,0.321,0.200,0.325,0.310,0.300,0.162,0.098,north,1.5,No
2018/04/17,07:40,0.321,0.200,0.326,0.309,0.300,0.162,0.097,north,1.7,No
2018/04/17,07:50,0.319,0.199,0.325,0.309,0.301,0.163,0.098,north,1.8,No
2018/04/17,08:00,0.321,0.200,0.326,0.309,0.301,0.162,0.098,north-northwest,1.4,No
2018/04/17,08:10,0.320,0.199,0.325,0.310,0.301,0.162,0.097,north-northwest,1.6,No
2018/04/17,08:20,0.320,0.201,0.324,0.310,0.298,0.161,0.098,north,0.9,No
2018/04/17,08:30,0.321,0.200,0.326,0.310,0.301,0.163,0.098,north,1.4,No
2018/04/17,08:40,0.320,0.200,0.325,0.308,0.300,0.163,0.098,-,CALM,No
2018/04/17,08:50,0.321,0.200,0.327,0.311,0.302,0.162,0.098,north-northeast,1.5,No
2018/04/17,09:00,0.319,0.199,0.325,0.309,0.298,0.163,0.098,north-northeast,1.4,No
2018/04/17,09:10,0.321,0.201,0.325,0.310,0.301,0.162,0.097,north-northeast,1.2,No
2018/04/17,09:20,0.320,0.200,0.326,0.309,0.298,0.164,0.098,north-northeast,1.7,No
2018/04/17,09:30,0.321,0.200,0.325,0.309,0.302,0.162,0.098,northeast,1.3,No
2018/04/17,09:40,0.320,0.201,0.326,0.310,0.301,0.163,0.098,north-northeast,1.2,No
2018/04/17,09:50,0.320,0.199,0.325,0.308,0.302,0.163,0.098,north,1.2,No
2018/04/17,10:00,0.321,0.200,0.328,0.310,0.299,0.162,0.097,northeast,1.0,No
2018/04/17,10:10,0.320,0.199,0.324,0.311,0.302,0.163,0.098,northeast,0.8,No
2018/04/17,10:20,0.322,0.200,0.326,0.309,0.299,0.164,0.098,northeast,2.3,No
2018/04/17,10:30,0.319,0.200,0.325,0.308,0.301,0.162,0.098,northeast,1.9,No
2018/04/17,10:40,0.321,0.201,0.326,0.310,0.300,0.163,0.097,northeast,2.1,No
2018/04/17,10:50,0.320,0.199,0.326,0.308,0.300,0.163,0.098,east-northeast,1.5,No
2018/04/17,11:00,0.320,0.200,0.325,0.310,0.301,0.162,0.098,east,1.2,No
2018/04/17,11:10,0.318,0.200,0.323,0.308,0.299,0.162,0.098,east,2.1,No
2018/04/17,11:20,0.320,0.199,0.326,0.309,0.302,0.162,0.098,east-northeast,1.9,No
2018/04/17,11:30,0.319,0.200,0.324,0.309,0.298,0.162,0.098,east,2.5,No
2018/04/17,11:40,0.322,0.200,0.326,0.310,0.302,0.162,0.098,east,2.6,No
2018/04/17,11:50,0.320,0.200,0.325,0.310,0.301,0.163,0.098,east,1.7,No
2018/04/17,12:00,0.321,0.199,0.327,0.308,0.299,0.163,0.097,east-northeast,1.6,No
2018/04/17,12:10,0.318,0.200,0.324,0.310,0.300,0.163,0.098,east,2.0,No
2018/04/17,12:20,0.321,0.201,0.326,0.309,0.298,0.163,0.097,east-southeast,1.4,No
2018/04/17,12:30,0.320,0.201,0.324,0.310,0.301,0.163,0.098,east,1.4,No
2018/04/17,12:40,0.323,0.201,0.326,0.308,0.301,0.162,0.097,southeast,0.8,No
2018/04/17,12:50,0.320,0.200,0.325,0.310,0.301,0.163,0.097,southeast,1.2,No
2018/04/17,13:00,0.322,0.200,0.327,0.311,0.303,0.162,0.098,southeast,1.7,No
2018/04/17,13:10,0.320,0.200,0.325,0.310,0.299,0.163,0.097,south-southeast,3.0,No
2018/04/17,13:20,0.322,0.199,0.326,0.309,0.302,0.162,0.098,south-southeast,3.8,No
2018/04/17,13:30,0.319,0.200,0.327,0.310,0.300,0.164,0.098,south,3.8,No
2018/04/17,13:40,0.320,0.201,0.326,0.310,0.302,0.162,0.097,south-southeast,2.2,No
2018/04/17,13:50,0.321,0.201,0.325,0.311,0.300,0.164,0.099,south,3.2,No
2018/04/17,14:00,0.322,0.200,0.327,0.311,0.303,0.162,0.097,south,2.8,No
2018/04/17,14:10,0.320,0.201,0.326,0.311,0.301,0.163,0.098,south,4.7,No
2018/04/17,14:20,0.322,0.200,0.326,0.310,0.301,0.163,0.098,south,3.0,No
2018/04/17,14:30,0.320,0.201,0.326,0.311,0.302,0.164,0.098,south,3.7,No
2018/04/17,14:40,0.319,0.199,0.326,0.310,0.300,0.163,0.098,south,4.2,No
2018/04/17,14:50,0.320,0.201,0.326,0.312,0.300,0.163,0.099,south,4.4,No
2018/04/17,15:00,0.320,0.200,0.327,0.310,0.301,0.161,0.098,south-southwest,2.8,No
2018/04/17,15:10,0.320,0.201,0.327,0.312,0.301,0.163,0.098,south-southwest,3.9,No
2018/04/17,15:20,0.320,0.200,0.327,0.309,0.303,0.163,0.097,south-southwest,5.8,No
2018/04/17,15:30,0.319,0.201,0.326,0.311,0.301,0.163,0.097,south,5.3,No
2018/04/17,15:40,0.321,0.199,0.327,0.309,0.303,0.162,0.098,south,1.9,No
2018/04/17,15:50,0.320,0.201,0.325,0.310,0.300,0.163,0.098,-,CALM,No
2018/04/17,16:00,0.320,0.201,0.328,0.312,0.301,0.162,0.099,south-southwest,1.3,No
2018/04/17,16:10,0.320,0.201,0.326,0.311,0.301,0.162,0.097,south,2.8,No
2018/04/17,16:20,0.323,0.201,0.328,0.312,0.303,0.163,0.098,south,4.3,No
2018/04/17,16:30,0.319,0.199,0.326,0.310,0.301,0.163,0.098,south,4.3,No
2018/04/17,16:40,0.321,0.201,0.327,0.312,0.302,0.163,0.098,south,4.4,No
2018/04/17,16:50,0.321,0.201,0.328,0.310,0.300,0.163,0.098,south-southwest,4.1,No
2018/04/17,17:00,0.323,0.201,0.326,0.309,0.301,0.164,0.098,south-southwest,5.0,No
2018/04/17,17:10,0.320,0.201,0.327,0.312,0.300,0.163,0.098,south-southwest,5.4,No
2018/04/17,17:20,0.321,0.201,0.327,0.310,0.303,0.164,0.098,south,3.7,No
2018/04/17,17:30,0.321,0.201,0.328,0.312,0.299,0.163,0.098,south-southwest,3.7,No
2018/04/17,17:40,0.323,0.200,0.326,0.312,0.302,0.164,0.097,south-southwest,4.8,No
2018/04/17,17:50,0.322,0.202,0.328,0.312,0.303,0.163,0.098,south-southwest,4.9,No
2018/04/17,18:00,0.322,0.201,0.326,0.310,0.300,0.163,0.098,south-southwest,4.7,No
2018/04/17,18:10,0.322,0.201,0.327,0.311,0.302,0.162,0.098,south-southwest,5.2,No
2018/04/17,18:20,0.321,0.200,0.328,0.312,0.301,0.164,0.098,south,4.8,No
2018/04/17,18:30,0.322,0.200,0.326,0.310,0.302,0.164,0.098,south,2.2,No
2018/04/17,18:40,0.320,0.200,0.328,0.311,0.301,0.163,0.098,south,3.7,No
2018/04/17,18:50,0.322,0.201,0.327,0.310,0.303,0.163,0.098,south,4.9,No
2018/04/17,19:00,0.320,0.201,0.327,0.310,0.301,0.163,0.098,south,6.5,No
2018/04/17,19:10,0.322,0.200,0.328,0.311,0.301,0.163,0.097,south,5.9,No
2018/04/17,19:20,0.321,0.201,0.327,0.310,0.304,0.163,0.099,south-southwest,4.5,No
2018/04/17,19:30,0.320,0.201,0.329,0.313,0.301,0.164,0.098,south-southwest,4.8,Yes
2018/04/17,19:40,0.323,0.200,0.327,0.311,0.303,0.164,0.099,south-southwest,5.8,No
2018/04/17,19:50,0.321,0.200,0.328,0.312,0.302,0.164,0.098,south-southwest,5.4,No
2018/04/17,20:00,0.323,0.203,0.328,0.313,0.300,0.163,0.099,south-southwest,5.2,No
2018/04/17,20:10,0.320,0.201,0.327,0.311,0.302,0.163,0.099,south-southwest,5.8,No
2018/04/17,20:20,0.322,0.201,0.328,0.310,0.300,0.164,0.098,south-southwest,4.2,No
2018/04/17,20:30,0.321,0.200,0.326,0.312,0.303,0.164,0.098,south,5.6,Yes
2018/04/17,20:40,0.321,0.202,0.328,0.311,0.302,0.164,0.099,south-southwest,7.4,Yes
2018/04/17,20:50,0.322,0.201,0.327,0.313,0.302,0.164,0.099,south-southwest,7.1,Yes
2018/04/17,21:00,0.322,0.202,0.327,0.311,0.303,0.165,0.099,south-southwest,6.3,Yes
2018/04/17,21:10,0.321,0.202,0.329,0.310,0.301,0.164,0.099,south-southwest,6.3,Yes
2018/04/17,21:20,0.322,0.202,0.328,0.313,0.304,0.164,0.099,south-southwest,7.1,Yes
2018/04/17,21:30,0.322,0.200,0.329,0.309,0.301,0.163,0.099,south-southwest,5.6,Yes
2018/04/17,21:40,0.322,0.203,0.328,0.312,0.303,0.164,0.099,south-southwest,5.3,Yes
2018/04/17,21:50,0.321,0.202,0.327,0.312,0.303,0.164,0.099,south-southwest,6.8,Yes
2018/04/17,22:00,0.324,0.201,0.328,0.310,0.300,0.164,0.098,south-southwest,6.8,Yes
2018/04/17,22:10,0.321,0.201,0.327,0.313,0.302,0.163,0.099,south-southwest,7.2,Yes
2018/04/17,22:20,0.323,0.201,0.328,0.311,0.301,0.163,0.099,south-southwest,6.5,Yes
2018/04/17,22:30,0.322,0.201,0.328,0.312,0.302,0.164,0.098,south-southwest,7.5,No
2018/04/17,22:40,0.322,0.201,0.327,0.311,0.303,0.163,0.098,south-southwest,8.1,No
2018/04/17,22:50,0.324,0.201,0.328,0.310,0.302,0.164,0.098,south-southwest,7.5,No
2018/04/17,23:00,0.321,0.202,0.328,0.312,0.302,0.163,0.098,south-southwest,8.1,No
2018/04/17,23:10,0.321,0.201,0.327,0.311,0.299,0.163,0.098,south-southwest,8.1,No
2018/04/17,23:20,0.321,0.200,0.327,0.310,0.301,0.163,0.098,south-southwest,7.9,No
2018/04/17,23:30,0.320,0.200,0.326,0.312,0.300,0.164,0.097,south-southwest,7.2,No
2018/04/17,23:40,0.323,0.199,0.326,0.310,0.301,0.163,0.098,south-southwest,7.6,No
2018/04/17,23:50,0.320,0.202,0.327,0.313,0.303,0.163,0.097,south-southwest,7.3,No
